CW0561 Weather Reports


time (UTC)temp
F
wind
direction
speed
knots
gust
knots
rain 1hr
in
rain 24hr
in
rain mn
in
humidity
%
barometer
mb
20230128002903 15 264 7.8 15.6 0.00 0.00 0.00 68 1009.1
20230128001903 16 271 6.1 15.6 0.00 0.00 0.00 67 1008.9
20230128000902 16 275 4.3 20.0 0.00 0.00 0.00 66 1008.7
20230127235902 16 262 18.2 22.6 0.00 0.00 0.00 66 1008.3
20230127233902 17 291 3.5 12.2 0.00 0.00 0.00 67 1007.8
20230127232902 17 265 13.9 18.2 0.00 0.00 0.00 67 1007.3
20230127231902 17 281 7.8 15.6 0.00 0.00 0.00 66 1007.0
20230127225902 19 271 22.6 20.0 0.00 0.00 0.00 66 1006.5
20230127223902 20 247 16.5 20.0 0.00 0.00 0.00 65 1006.0
20230127222902 20 259 15.6 25.2 0.00 0.00 0.00 65 1005.8
20230127221902 20 301 10.4 20.0 0.00 0.00 0.00 63 1005.6
20230127220902 21 273 10.4 20.9 0.00 0.00 0.00 63 1005.3
20230127215902 21 272 7.8 23.5 0.00 0.00 0.00 64 1005.1
20230127214902 21 272 15.6 14.8 0.00 0.00 0.00 66 1004.8
20230127213902 21 262 6.1 20.0 0.00 0.00 0.00 66 1004.6
20230127212902 21 277 18.2 20.9 0.00 0.00 0.00 65 1004.4
20230127211902 21 267 9.6 17.4 0.00 0.00 0.00 67 1004.3
20230127210902 21 254 12.2 17.4 0.00 0.00 0.00 68 1004.1
20230127205903 21 263 13.9 18.2 0.00 0.00 0.00 69 1003.8
20230127204902 21 276 15.6 18.2 0.00 0.00 0.00 68 1003.7
20230127203902 21 284 13.9 22.6 0.00 0.00 0.00 69 1003.4
20230127202902 21 275 10.4 20.0 0.00 0.00 0.00 69 1003.3
20230127201903 21 275 12.2 22.6 0.00 0.00 0.00 69 1003.3
20230127200902 21 323 15.6 28.7 0.00 0.00 0.00 69 1003.1
20230127195903 21 286 15.6 20.0 0.00 0.00 0.00 69 1002.9
20230127194902 22 224 20.0 30.4 0.00 0.00 0.00 70 1002.7
20230127193902 22 251 10.4 27.8 0.00 0.00 0.00 71 1002.6
20230127191903 22 275 12.2 20.9 0.00 0.00 0.00 72 1002.2
20230127185902 21 284 12.2 25.2 0.00 0.00 0.00 72 1001.9
20230127183902 22 229 7.8 31.3 0.00 0.00 0.00 73 1001.5
20230127181902 21 291 4.3 27.8 0.00 0.00 0.00 75 1001.2
20230127180902 22 263 13.9 23.5 0.00 0.00 0.00 74 1001.3
20230127175902 22 265 16.5 27.8 0.00 0.00 0.00 75 1001.0
20230127173902 22 276 12.2 22.6 0.00 0.00 0.00 77 1000.3
20230127172902 22 261 13.9 27.8 0.00 0.00 0.00 77 1000.3
20230127171902 22 290 16.5 28.7 0.00 0.00 0.00 78 1000.2
20230127170902 23 231 9.6 23.5 0.00 0.00 0.00 80 1000.1
20230127164902 23 275 13.9 22.6 0.00 0.00 0.00 80 999.7
20230127163902 23 257 10.4 23.5 0.00 0.00 0.00 79 999.5
20230127162902 24 279 15.6 35.6 0.00 0.00 0.00 80 999.3
20230127161902 24 291 9.6 27.8 0.00 0.00 0.00 81 999.0
20230127160902 25 294 4.3 22.6 0.00 0.00 0.00 81 998.7
20230127155902 26 275 6.1 17.4 0.00 0.00 0.00 82 998.4
20230127154902 26 300 7.8 15.6 0.00 0.00 0.00 83 998.2
20230127153902 26 288 13.9 23.5 0.00 0.00 0.00 83 997.7
20230127152902 27 315 16.5 20.9 0.00 0.00 0.00 84 997.6
20230127150902 28 275 10.4 31.3 0.00 0.00 0.00 84 996.9
20230127145902 28 252 13.9 23.5 0.00 0.00 0.00 85 996.5
20230127144902 29 302 10.4 22.6 0.00 0.00 0.00 87 996.2
20230127143903 29 297 20.0 23.5 0.00 0.00 0.00 89 995.9
20230127141902 30 252 4.3 18.2 0.00 0.00 0.00 92 995.4
20230127140902 31 268 12.2 26.1 0.00 0.00 0.00 93 994.9
20230127135902 33 265 22.6 20.9 0.00 0.00 0.00 94 994.6
20230127133902 32 299 10.4 14.8 0.00 0.00 0.00 94 993.9
20230127132903 31 296 0.0 7.0 0.00 0.00 0.00 94 993.9
20230127131902 30 258 0.0 0.0 0.00 0.00 0.00 94 993.6
20230127125902 30 208 0.0 0.0 0.00 0.00 0.00 94 993.3
20230127124902 30 208 0.0 0.0 0.00 0.00 0.00 94 993.2
20230127123902 29 216 0.0 0.0 0.00 0.00 0.00 93 993.1
20230127122902 29 217 0.0 0.0 0.00 0.00 0.00 93 993.0
20230127121901 29 217 0.0 7.0 0.00 0.00 0.00 93 992.9
20230127120901 29 189 3.5 7.0 0.00 0.00 0.00 93 992.8
20230127115902 28 205 0.0 7.8 0.00 0.00 0.00 93 992.7
20230127114902 28 189 4.3 9.6 0.00 0.00 0.00 93 992.6
20230127112901 28 207 1.7 7.8 0.00 0.00 0.00 93 992.6
20230127111902 27 203 4.3 7.8 0.00 0.00 0.00 93 992.7
20230127110901 27 170 1.7 10.4 0.00 0.00 0.00 93 992.8
20230127105902 27 193 4.3 9.6 0.00 0.00 0.00 92 992.9
20230127102902 26 188 9.6 10.4 0.00 0.00 0.00 92 993.2
20230127101901 26 198 4.3 12.2 0.00 0.00 0.00 92 993.2
20230127100901 25 190 3.5 9.6 0.00 0.00 0.00 92 993.2
20230127095902 25 204 7.8 10.4 0.00 0.00 0.00 92 993.4
20230127094902 25 203 0.0 9.6 0.00 0.00 0.00 92 993.7
20230127093902 25 207 6.1 14.8 0.00 0.00 0.00 92 993.9
20230127092901 24 219 10.4 20.0 0.00 0.00 0.00 92 994.0
20230127091902 24 192 6.1 14.8 0.00 0.00 0.00 92 994.3
20230127090901 23 194 6.1 12.2 0.00 0.00 0.00 92 994.5
20230127085903 23 180 6.1 15.6 0.00 0.00 0.00 91 994.6
20230127084901 22 138 9.6 9.6 0.00 0.00 0.00 91 994.8
20230127083901 22 173 3.5 13.0 0.00 0.00 0.00 91 995.0
20230127081901 21 182 1.7 14.8 0.00 0.00 0.00 90 995.5
20230127080901 21 164 7.8 20.0 0.00 0.00 0.00 91 995.8
20230127075902 20 190 7.8 15.6 0.00 0.00 0.00 90 995.9
20230127074901 19 196 6.1 13.0 0.00 0.00 0.00 90 996.2
20230127073901 19 157 7.8 12.2 0.00 0.00 0.00 90 996.4
20230127072901 18 190 12.2 13.0 0.00 0.00 0.00 90 996.6
20230127071901 18 182 6.1 14.8 0.00 0.00 0.00 89 996.8
20230127070901 17 161 6.1 14.8 0.00 0.00 0.00 89 997.0
20230127065902 17 158 16.5 20.0 0.00 0.00 0.00 89 997.2
20230127064902 17 155 6.1 22.6 0.00 0.00 0.00 89 997.4
20230127063901 16 175 7.8 14.8 0.00 0.00 0.00 88 997.8
20230127062901 16 169 6.1 13.0 0.00 0.00 0.00 88 998.2
20230127061901 16 176 15.6 15.6 0.00 0.00 0.00 87 998.5
20230127060901 15 167 9.6 20.0 0.00 0.00 0.00 87 998.8
20230127055903 15 161 7.8 17.4 0.00 0.00 0.00 86 999.1
20230127054901 15 174 3.5 15.6 0.00 0.00 0.00 86 999.3
20230127053901 15 168 9.6 17.4 0.00 0.00 0.00 86 999.6
20230127052901 15 149 9.6 14.8 0.00 0.00 0.00 85 999.9
20230127051901 14 131 12.2 15.6 0.00 0.00 0.00 85 1000.1
20230127050901 14 130 13.9 15.6 0.00 0.00 0.00 84 1000.4
20230127045902 15 115 10.4 18.2 0.00 0.00 0.00 83 1000.9
20230127044901 15 175 7.8 13.0 0.00 0.00 0.00 83 1001.2
20230127042902 15 185 1.7 17.4 0.00 0.00 0.00 82 1002.2
20230127040901 15 161 6.1 13.0 0.00 0.00 0.00 82 1002.7
20230127035901 14 146 15.6 13.0 0.00 0.00 0.00 81 1002.9
20230127034901 14 174 7.8 14.8 0.00 0.00 0.00 81 1003.0
20230127031901 14 203 6.1 15.6 0.00 0.00 0.00 81 1004.1
20230127025901 14 163 9.6 15.6 0.00 0.00 0.00 82 1004.5
20230127023901 14 155 7.8 15.6 0.00 0.00 0.00 82 1004.5
20230127022901 14 188 7.8 18.2 0.00 0.00 0.00 82 1004.9
20230127021901 13 175 6.1 13.0 0.00 0.00 0.00 82 1005.2
20230127015901 13 165 6.1 17.4 0.00 0.00 0.00 81 1005.7
20230127014901 13 188 6.1 12.2 0.00 0.00 0.00 80 1005.9
20230127012901 13 193 4.3 10.4 0.00 0.00 0.00 79 1006.8
20230127011901 13 215 7.8 13.0 0.00 0.00 0.00 78 1007.2
20230127005902 13 202 9.6 10.4 0.00 0.00 0.00 76 1007.9
20230127004902 13 215 6.1 9.6 0.00 0.00 0.00 75 1008.0
20230127003901 13 204 7.8 9.6 0.00 0.00 0.00 75 1008.1